Regional Weather Roundup
Issued by NWS

Home | Current Version | Previous Version | Text Only | Print | Product List | Glossary On
Versions: 1 2 3 4 5 6 7 8 9 10 11 12 13 14 15 16 17 18 19 20 21 22 23 24 25 26 27 28 29 30 31 32 33 34 35 36 37 38 39 40 41 42 43 44 45 46 47 48 49 50
000
ASUS43 KLMK 010810
RWRKY
KENTUCKY REGIONAL WEATHER ROUNDUP
NATIONAL WEATHER SERVICE LOUISVILLE KY
400 AM EDT WED APR 01 2015

NOTE "FAIR" INDICATES FEW OR NO CLOUDS BELOW 12,000 FEET
WITH NO SIGNIFICANT WEATHER AND/OR OBSTRUCTIONS TO VISIBILITY.

KYZ001>023-026-027-061>063-070>075-010900-
WESTERN AND SOUTH CENTRAL KENTUCKY

CITY           SKY/WX    TMP DP  RH WIND       PRES   REMARKS
PADUCAH        CLEAR     46  38  73 CALM      30.00R
HENDERSON      CLEAR     41  34  75 NE3       30.01S
OWENSBORO      CLEAR     48  37  65 CALM      30.02S
HOPKINSVILLE   CLEAR     52  36  53 E7        30.01R
BOWLING GREEN  CLEAR     50  34  54 CALM      30.03R
GLASGOW        CLEAR     45  34  66 CALM      30.03R
$$

KYZ024-025-028>034-038-045-046-053-010900-
NORTH CENTRAL KENTUCKY

CITY           SKY/WX    TMP DP  RH WIND       PRES   REMARKS
LOUISVILLE/SDF CLEAR     48  36  63 E6        30.04R
LOUISVILLE/LOU CLEAR     46  35  65 E3        30.05R
FORT KNOX      CLEAR     45  34  66 CALM      30.01S
$$

KYZ035>037-039>044-047>052-055>060-089>105-010900-
NORTHEAST KENTUCKY

CITY           SKY/WX    TMP DP  RH WIND       PRES   REMARKS
LEXINGTON      CLEAR     40  34  79 NE7       30.05R
COVINGTON      CLEAR     37  32  82 SE5       30.05S WCI  33
FRANKFORT      CLEAR     40  34  79 E5        30.04R
$$

KYZ054-064>069-076>088-106>120-010900-
SOUTHEAST KENTUCKY

CITY           SKY/WX    TMP DP  RH WIND       PRES   REMARKS
JACKSON        CLEAR     42  33  70 CALM      30.03R
LONDON         CLEAR     46  33  60 N7        30.01S
SOMERSET       CLEAR     45  32  61 N5        30.03F
MIDDLESBORO    CLEAR     46  35  64 CALM      30.00R
MONTICELLO     SUNNY     41  34  76 CALM      30.05R
$$



USA.gov is the U.S. government's official web portal to all federal, state and local government web resources and services.